GW2364 Weather Reports


Display with metric or nautical units.
time (UTC)temp
F
wind
direction
speed
MPH
gust
MPH
rain 1hr
in
rain 24hr
in
rain mn
in
humidity
%
barometer
mb
20260506023002 77 82 0.0 5.0 0.00 0.00 0.00 84 1005.0
20260506021502 77 79 0.0 4.0 0.00 0.00 0.00 84 1004.7
20260506020003 77 103 1.0 4.0 0.00 0.00 0.00 83 1004.4
20260506014501 78 68 1.0 3.0 0.00 0.00 0.00 83 1004.4
20260506013002 78 78 1.0 3.0 0.00 0.00 0.00 82 1004.3
20260506011505 79 111 1.0 3.0 0.00 0.00 0.00 80 1004.3
20260506010005 80 90 0.0 2.0 0.00 0.00 0.00 78 1004.3
20260506004508 81 106 0.0 2.0 0.00 0.00 0.00 77 1004.3
20260506003002 82 106 0.0 1.0 0.00 0.00 0.00 75 1004.2
20260506001502 82 252 1.0 3.0 0.00 0.00 0.00 75 1004.3
20260506000004 82 252 2.0 7.0 0.00 0.00 0.00 73 1004.1
20260505234502 83 217 0.0 5.0 0.00 0.00 0.00 73 1003.9
20260505233002 83 169 1.0 5.0 0.00 0.00 0.00 72 1003.8
20260505231502 83 224 2.0 8.0 0.00 0.00 0.00 72 1003.8
20260505230007 83 223 3.0 9.0 0.00 0.00 0.00 70 1003.7
20260505224502 84 248 4.0 9.0 0.00 0.00 0.00 69 1003.7
20260505223002 84 223 4.0 11.0 0.00 0.00 0.00 69 1003.7
20260505221503 85 244 2.0 8.0 0.00 0.00 0.00 68 1003.7
20260505220003 85 295 2.0 12.0 0.00 0.00 0.00 68 1003.7
20260505214505 85 218 3.0 12.0 0.00 0.00 0.00 67 1004.1
20260505213003 85 243 4.0 13.0 0.00 0.00 0.00 67 1004.2
20260505211502 86 240 6.0 11.0 0.00 0.00 0.00 66 1004.1
20260505210004 85 192 2.0 10.0 0.00 0.00 0.00 69 1004.5
20260505204502 85 288 2.0 9.0 0.00 0.00 0.00 69 1004.5
20260505203002 84 215 2.0 12.0 0.00 0.00 0.00 70 1004.9
20260505201501 85 108 2.0 8.0 0.00 0.00 0.00 70 1005.1
20260505200005 84 236 5.0 11.0 0.00 0.00 0.00 70 1005.4
20260505194501 83 55 2.0 6.0 0.00 0.00 0.00 72 1005.5
20260505193001 83 333 3.0 9.0 0.00 0.00 0.00 73 1005.8
20260505191501 82 217 2.0 11.0 0.00 0.00 0.00 73 1005.8
20260505190005 82 278 2.0 9.0 0.00 0.00 0.00 72 1005.9
20260505184501 82 230 2.0 9.0 0.00 0.00 0.00 74 1006.1
20260505183001 81 275 5.0 11.0 0.00 0.00 0.00 74 1006.2
20260505181502 79 217 3.0 9.0 0.00 0.00 0.00 78 1006.6
20260505180004 78 213 3.0 10.0 0.00 0.00 0.00 80 1006.5
20260505174502 77 205 5.0 11.0 0.00 0.00 0.00 80 1006.8
20260505173002 76 250 4.0 11.0 0.00 0.00 0.00 81 1006.9
20260505171502 76 233 4.0 10.0 0.00 0.00 0.00 82 1006.9
20260505170003 75 234 3.0 10.0 0.00 0.00 0.00 84 1007.1
20260505164501 74 225 4.0 11.0 0.00 0.00 0.00 85 1007.2
20260505163000 73 254 5.0 12.0 0.00 0.00 0.00 86 1007.0
20260505161501 73 238 4.0 9.0 0.00 0.00 0.00 87 1007.1
20260505153004 71 223 2.0 8.0 0.00 0.00 0.00 90 1007.4
20260505151601 71 225 3.0 8.0 0.00 0.00 0.00 91 1007.3
20260505151500 70 242 3.0 8.0 0.00 0.00 0.00 91 1007.2
20260505130105 70 217 3.0 11.0 0.00 0.00 0.00 91 1006.4
20260505124613 70 221 4.0 9.0 0.00 0.00 0.00 91 1006.0
20260505123102 70 174 4.0 9.0 0.00 0.00 0.00 91 1006.0
20260505123000 70 240 3.0 9.0 0.00 0.00 0.00 91 1005.9
20260505121600 69 242 3.0 9.0 0.00 0.00 0.00 91 1005.8
20260505120003 69 178 5.0 11.0 0.00 0.00 0.00 91 1005.6
20260505114604 69 213 2.0 6.0 0.00 0.00 0.00 90 1005.6
20260505113115 69 251 2.0 9.0 0.00 0.00 0.00 90 1005.4
20260505113002 69 213 2.0 9.0 0.00 0.00 0.00 90 1005.5
20260505111602 69 248 2.0 10.0 0.00 0.00 0.00 91 1005.5
20260505101600 69 228 3.0 9.0 0.00 0.00 0.00 90 1005.9
20260505100005 69 213 4.0 11.0 0.00 0.00 0.00 89 1005.8
20260505094600 69 198 3.0 9.0 0.00 0.00 0.00 89 1005.8
20260505093106 69 215 3.0 8.0 0.00 0.00 0.00 89 1006.0
20260505091600 69 232 4.0 9.0 0.00 0.00 0.00 88 1005.9
20260505090059 69 288 4.0 10.0 0.00 0.00 0.00 88 1006.2
20260505090001 69 256 4.0 12.0 0.00 0.00 0.00 88 1006.2
20260505084559 69 248 3.0 10.0 0.00 0.00 0.00 88 1006.1
20260505083104 69 302 3.0 10.0 0.00 0.00 0.00 88 1006.2
20260505083002 69 9 4.0 10.0 0.00 0.00 0.00 89 1006.2
20260505081600 69 236 3.0 13.0 0.00 0.00 0.00 89 1006.6
20260505080112 70 255 4.0 11.0 0.00 0.00 0.00 88 1006.7
20260505080002 70 213 4.0 11.0 0.00 0.00 0.00 88 1006.7
20260505074600 70 259 3.0 9.0 0.00 0.00 0.00 88 1006.8
20260505073107 70 273 4.0 10.0 0.00 0.00 0.00 87 1006.8
20260505071601 70 230 2.0 10.0 0.00 0.00 0.00 87 1007.0
20260505070100 70 232 4.0 11.0 0.00 0.00 0.00 87 1007.2
20260505070001 70 277 5.0 11.0 0.00 0.00 0.00 87 1007.1
20260505064603 70 283 3.0 10.0 0.00 0.00 0.00 87 1007.4
20260505063103 70 223 3.0 12.0 0.00 0.00 0.00 87 1007.5
20260505061600 70 13 3.0 11.0 0.00 0.00 0.00 87 1007.9
20260505060101 70 237 1.0 10.0 0.00 0.00 0.00 86 1007.8
20260505060005 70 163 2.0 10.0 0.00 0.00 0.00 86 1007.8
20260505054502 70 318 2.0 9.0 0.00 0.00 0.00 86 1007.8
20260505053004 71 194 2.0 10.0 0.00 0.00 0.00 86 1007.8
20260505051502 71 239 2.0 13.0 0.00 0.00 0.00 85 1007.9
20260505041503 71 16 1.0 10.0 0.00 0.00 0.00 84 1007.7
20260505040005 72 108 1.0 5.0 0.00 0.00 0.00 83 1007.7
20260505034502 72 53 0.0 4.0 0.00 0.00 0.00 83 1007.8
20260505033002 72 87 1.0 7.0 0.00 0.00 0.00 82 1007.8
20260505031502 73 167 1.0 3.0 0.00 0.00 0.00 81 1007.8
20260505030005 73 149 0.0 3.0 0.00 0.00 0.00 80 1007.8
20260505024502 73 167 1.0 7.0 0.00 0.00 0.00 80 1007.7